Weather in Grachevka

Russia / Orenburg Oblast     52°55′14″N   52°52′04″E
temp.,
°C
wind,
m/s
gust,
m/s
humid.,
%
clouds,
%
prec.,
mm/h
press.,
hPa
HPBL,
m
23 may, mon
mon2323:00+7s3789100 1.6 1000190
02:00+5se2292100 0.0 99920
05:00+6e2492100 0.3 997168
08:00+6ne2496100 0.9 997219
11:00+7n1189100 1.4 997221
14:00+11sw337361 0.2 999978
17:00+9nw3381100 0.6 1001405
20:00+9ene1187100 0.2 100271
24 may, tue
tue2423:00+8nnw1189100 0.3 100314
02:00+8nne1190100 0.1 100314
05:00+7n2489100 0.1 1004162
08:00+7nnw128397 0.1 1005127
11:00+11w236375 0.1 10061251
14:00+14w1251100 0.0 10061645
17:00+15sw2249100 0.1 10061625
20:00+12wnw2465100 0.0 1007143
25 may, wed
wed2523:00+9nnw2266100 0.0 100818
02:00+8ese1167100 0.0 100810
05:00+7sw1167100 0.0 100810
08:00+10sw2464100 0.0 1008206
11:00+13w4559100 0.0 10081000
14:00+15w6651100 0.2 10082053
17:00+11nw6667100 0.2 1010840
20:00+10nw466956 0.0 1011760
26 may, thu
thu2623:00+5nw228266 0.0 101229
02:00+4wnw22865 0.0 101225
05:00+3w34865 0.0 101367
08:00+6wnw45745 0.0 1014335
11:00+10w465464 0.0 10141459
14:00+13wsw564687 0.0 10142239
17:00+13wsw574799 0.0 10131932
20:00+11wsw596456 0.1 1013574
27 may, fri
fri2723:00+8s4107487 0.1 1013216
02:00+9s7156495 0.0 1010489
05:00+9ssw91878100 0.6 1008725
08:00+10ssw71677100 0.1 1007603
11:00+13ssw91478100 0.2 10061000
14:00+12s91589100 0.7 10051067
17:00+11ssw6119280 2.0 1004672
20:00+13s6118453 0.8 1004469